TimeAKST,TemperatureF,Dew PointF,Humidity,Sea Level PressureIn,VisibilityMPH,Wind Direction,Wind SpeedMPH,Gust SpeedMPH,PrecipitationIn,Events,Conditions,WindDirDegrees,DateUTC
12:53 AM,16.0,10.0,77,29.47,10.0,North,6.9,-,N/A,,Clear,350,2012-11-04 08:53:00
1:53 AM,16.0,9.0,74,29.47,10.0,NNW,9.2,-,N/A,,Clear,330,2012-11-04 09:53:00
1:53 AM,18.0,10.0,71,29.48,10.0,North,9.2,-,N/A,,Clear,350,2012-11-04 10:53:00
3:53 AM,14.0,9.0,80,29.47,10.0,NW,8.1,-,N/A,,Partly Cloudy,320,2012-11-04 12:53:00
4:53 AM,15.1,9.0,77,29.47,10.0,NW,9.2,-,N/A,,Clear,320,2012-11-04 13:53:00
5:53 AM,15.1,9.0,77,29.48,10.0,NW,6.9,-,N/A,,Clear,310,2012-11-04 14:53:00
6:53 AM,15.1,8.1,74,29.49,10.0,WNW,6.9,-,N/A,,Clear,300,2012-11-04 15:53:00
7:53 AM,15.1,8.1,74,29.48,10.0,NW,8.1,-,N/A,,Clear,320,2012-11-04 16:53:00
8:53 AM,15.1,8.1,74,29.48,10.0,NW,8.1,-,N/A,,Partly Cloudy,310,2012-11-04 17:53:00
9:53 AM,16.0,9.0,74,29.49,10.0,WNW,8.1,-,N/A,,Clear,300,2012-11-04 18:53:00
10:53 AM,18.0,9.0,68,29.49,10.0,NW,6.9,-,N/A,,Clear,310,2012-11-04 19:53:00
11:53 AM,21.9,10.0,60,29.49,10.0,NNW,12.7,17.3,N/A,,Clear,340,2012-11-04 20:53:00
12:53 PM,24.1,10.0,55,29.50,10.0,WNW,5.8,-,N/A,,Clear,290,2012-11-04 21:53:00
1:53 PM,24.1,9.0,53,29.50,10.0,North,10.4,-,N/A,,Partly Cloudy,360,2012-11-04 22:53:00
2:53 PM,23.0,9.0,55,29.50,10.0,WNW,11.5,-,N/A,,Partly Cloudy,290,2012-11-04 23:53:00
3:53 PM,23.0,9.0,55,29.50,10.0,NW,5.8,-,N/A,,Partly Cloudy,310,2012-11-05 00:53:00
4:53 PM,19.9,8.1,60,29.51,10.0,NW,8.1,-,N/A,,Partly Cloudy,320,2012-11-05 01:53:00
5:53 PM,16.0,6.1,65,29.52,10.0,West,6.9,-,N/A,,Partly Cloudy,280,2012-11-05 02:53:00
6:53 PM,16.0,7.0,68,29.53,10.0,NW,6.9,-,N/A,,Clear,320,2012-11-05 03:53:00
7:53 PM,15.1,6.1,68,29.54,10.0,NW,5.8,-,N/A,,Clear,320,2012-11-05 04:53:00
8:53 PM,16.0,5.0,62,29.54,10.0,NNW,11.5,-,N/A,,Clear,330,2012-11-05 05:53:00
9:53 PM,12.9,3.9,67,29.56,10.0,NW,8.1,16.1,N/A,,Clear,320,2012-11-05 06:53:00
10:53 PM,12.9,3.9,67,29.57,10.0,NW,10.4,-,N/A,,Clear,320,2012-11-05 07:53:00